This is the latest recevied weather packets stored in our database for station/object W4UWO. If no packets are shown the sender has not sent any weather packets the latest 10 day(s).
| Time | Temp. | Humidity | Pressure | Rain* | Wind** | Luminosity | Snow |
|---|---|---|---|---|---|---|---|
| 1788003274 | 18.33° C | 92% | 1021 hPa | 0 mm | - | 14 W/m² | - |
| 1788002973 | 18.33° C | 92% | 1021 hPa | 0 mm | - | 10 W/m² | - |
| 1788002668 | 18.33° C | 92% | 1020.9 hPa | 0 mm | - | 7 W/m² | - |
| 1788002364 | 18.33° C | 92% | 1020.7 hPa | 0 mm | - | 5 W/m² | - |
| 1788002059 | 18.33° C | 91% | 1020.6 hPa | 0 mm | - | 3 W/m² | - |
| 1788001759 | 18.89° C | 91% | 1020.6 hPa | 0 mm | - | 1 W/m² | - |
| 1788001454 | 18.89° C | 90% | 1020.6 hPa | 0 mm | - | 1 W/m² | - |
| 1788001154 | 18.89° C | 90% | 1020.4 hPa | 0 mm | - | 0 W/m² | - |
| 1788000849 | 18.89° C | 89% | 1020.5 hPa | 0 mm | - | 0 W/m² | - |
| 1788000545 | 19.44° C | 87% | 1020.6 hPa | 0 mm | - | 0 W/m² | - |
| 1788000245 | 19.44° C | 86% | 1020.5 hPa | 0 mm | - | 0 W/m² | - |
| 1787999940 | 19.44° C | 87% | 1020.5 hPa | 0 mm | - | 0 W/m² | - |
| 1787999637 | 18.89° C | 90% | 1020.5 hPa | 0 mm | - | 0 W/m² | - |
| 1787999334 | 18.89° C | 90% | 1020.5 hPa | 0 mm | - | 0 W/m² | - |
| 1787999032 | 18.89° C | 90% | 1020.6 hPa | 0 mm | - | 0 W/m² | - |
| 1787998728 | 18.89° C | 89% | 1020.5 hPa | 0 mm | - | 0 W/m² | - |
| 1787998425 | 18.89° C | 89% | 1020.4 hPa | 0 mm | - | 0 W/m² | - |
| 1787998121 | 19.44° C | 88% | 1020.4 hPa | 0 mm | - | 0 W/m² | - |
| 1787997820 | 19.44° C | 87% | 1020.6 hPa | 0 mm | - | 0 W/m² | - |
| 1787997519 | 19.44° C | 86% | 1020.6 hPa | 0 mm | - | 0 W/m² | - |
| 1787997219 | 19.44° C | 88% | 1020.5 hPa | 0 mm | - | 0 W/m² | - |
| 1787996918 | 19.44° C | 88% | 1020.6 hPa | 0 mm | - | 0 W/m² | - |
| 1787996614 | 19.44° C | 88% | 1020.6 hPa | 0 mm | - | 0 W/m² | - |
| 1787996309 | 19.44° C | 87% | 1020.6 hPa | 0 mm | - | 0 W/m² | - |
| 1787996008 | 19.44° C | 87% | 1020.6 hPa | 0 mm | - | 0 W/m² | - |
* Rain latest hour (hover to see other rain measurements)
** Current wind speed in m/s (hover to see current wind gust speed)